Regional Weather Roundup
Issued by NWS

Home | Current Version | Previous Version | Text Only | Print | Product List | Glossary Off
Versions: 1 2 3 4 5 6 7 8 9 10 11 12 13 14 15 16 17 18 19 20 21 22 23 24 25 26 27 28 29 30 31 32 33 34 35 36 37 38 39 40 41 42 43 44 45 46 47 48 49 50

000
ASUS43 KFSD 280510
RWRSD

WEATHER ROUNDUP FOR SOUTH DAKOTA
NATIONAL WEATHER SERVICE SIOUX FALLS SD
1200 AM CDT TUE JUL 28 2015

NOTE: "FAIR" INDICATES FEW OR NO CLOUDS BELOW 12,000 FEET WITH NO
SIGNIFICANT WEATHER AND/OR OBSTRUCTIONS TO VISIBILITY.


SDZ001>005-009-010-012>017-280600-
NORTHWEST AND NORTH CENTRAL SOUTH DAKOTA

CITY           SKY/WX    TMP DP  RH WIND       PRES   REMARKS
BUFFALO          N/A     59  53  80 NW25G39   29.73R
FAITH            N/A     68  58  70 SE14      29.65R
MOBRIDGE       LGT RAIN  71  67  87 S12       29.71F
$$

SDZ012>016-024>037-041>051-057-063-072>074-280600-
SOUTHWEST AND SOUTH CENTRAL SOUTH DAKOTA

CITY           SKY/WX    TMP DP  RH WIND       PRES   REMARKS
RAPID CTY ARPT PTCLDY    64  58  80 N18       29.76R
PIERRE         TSTM      67  65  93 N14       29.65F
CUSTER         CLEAR     57  52  83 NW7       29.90R
ELLSWORTH AFB  PTCLDY    65  58  78 N25G32    29.76R
PHILIP         CLOUDY    68  64  87 SE13      29.71R
PINE RIDGE     MOCLDY    65  60  84 E6        29.74S
SPEARFISH      FAIR      59  52  77 NW20G28   29.90R
WINNER         MOCLDY    72  63  73 NW18G37   29.73R
$$

SDZ004>011-016>023-039-040-280600-
NORTHEAST SOUTH DAKOTA

CITY           SKY/WX    TMP DP  RH WIND       PRES   REMARKS
ABERDEEN       MOCLDY    78  71  79 SE13      29.69F
WATERTOWN      MOCLDY    76  72  87 SE12G21   29.76F
BROOKINGS      MOCLDY    75  70  83 SE15G22   29.81F
SISSETON         N/A     74  72  93 S7        29.75F
$$

SDZ017-020-022-023-036>040-048>070-280600-
SOUTHEAST SOUTH DAKOTA

CITY           SKY/WX    TMP DP  RH WIND       PRES   REMARKS
SIOUX FALLS    CLOUDY    76  70  82 SE13G22   29.79F
HURON          CLOUDY    80  73  79 SE13G24   29.68F
CHAMBERLAIN    MOCLDY    77  72  83 SE13      29.66F
MITCHELL       PTCLDY    79  75  87 SE18G28   29.72F
YANKTON        CLOUDY    77  72  83 SE15      29.75F
$$

ABBREVIATIONS USED IN REMARKS
   TC - TEMPERATURE IN CELSIUS
  WCI - WIND CHILL INDEX
   HX - HEAT INDEX
  VSB - VISIBILITY




USA.gov is the U.S. government's official web portal to all federal, state and local government web resources and services.